Home   Weather   Spydeberg   Past weeks

Flag for Norway Past Weather in Spydeberg, Norway — Yesterday and Last 2 Weeks

Now
21 °F

Cold.


Feels Like: 16 °F
Forecast: 22 / 31 °F
Wind: 3 mph from Northeast

Location: Rygge

Current Time: Jan 24, 2017 at 12:04:55 am

Latest Report: Jan 23, 2017 at 11:20 pm


Visibility: N/A

Pressure: 30.09 "Hg

Humidity: 100%

Dew Point: 21 °F

Location of SpydebergLocation

Past Weather in Spydeberg — Graph

°F

Spydeberg Temperature Yesterday

Maximum temperature yesterday: 30 °F (at 12:20 am)
Minimum temperature yesterday: 23 °F (at 8:20 pm)
Average temperature yesterday: 27 °F

High & Low Weather Summary for the Past Weeks

 TemperatureHumidityPressure
High46 °F (Jan 19, 2:20 pm)100% (Jan 9, 12:50 am)30.45 "Hg (Jan 9, 12:50 am)
Low16 °F (Jan 16, 2:20 am)55% (Jan 15, 1:20 pm)28.50 "Hg (Jan 11, 2:50 pm)
Average33 °F86%29.87 "Hg
* Reported Jan 8 10:20 pm — Jan 23 10:50 pm, Spydeberg, Weather by CustomWeather, © 2017

Note: Actual official high and low records may vary slightly from our data, if they occured in-between our weather recording intervals... More about our weather records

Advertising

Spydeberg Weather History for the Previous 24 Hours

Scroll right to see more
 ConditionsComfort  
Time TempWeatherWind HumidityBarometerVisibility
10:50 pm
Mon, Jan 23
23 °FCold.3 mph93%30.09 "Hg5 mi
10:20 pm23 °FCold.2 mph93%30.09 "Hg3 mi
9:50 pm23 °FCold.1 mph93%30.07 "Hg4 mi
9:20 pm23 °FCold.3 mph100%30.07 "Hg5 mi
8:50 pm23 °FCold.2 mph100%30.07 "Hg5 mi
8:20 pm23 °FCold.1 mph100%30.07 "Hg4 mi
7:50 pm25 °FFog.2 mph93%30.04 "Hg3 mi
7:20 pm25 °FFog.3 mph93%30.04 "Hg2 mi
6:50 pm25 °FIce fog.2 mph100%30.04 "Hg0 mi
6:20 pm25 °FIce fog.3 mph100%30.04 "Hg1 mi
5:50 pm27 °FIce fog.3 mph93%30.04 "Hg0 mi
5:20 pm27 °FIce fog.3 mph100%30.04 "Hg0 mi
4:50 pm27 °FIce fog.3 mph100%30.04 "Hg0 mi
4:20 pm27 °FIce fog.3 mph100%30.01 "Hg0 mi
3:50 pm28 °FIce fog.2 mph100%30.01 "Hg0 mi
3:20 pm28 °FIce fog.1 mph100%30.01 "Hg0 mi
2:50 pm28 °FIce fog.1 mph100%30.01 "Hg0 mi
2:20 pm28 °FIce fog.1 mph100%30.01 "Hg0 mi
1:50 pm28 °FIce fog.1 mph100%30.04 "Hg0 mi
1:20 pm28 °FIce fog.1 mph100%30.04 "Hg0 mi
12:50 pm28 °FIce fog.2 mph100%30.04 "Hg0 mi
12:20 pm28 °FIce fog.2 mph100%30.04 "Hg0 mi
11:50 am28 °FIce fog.3 mph100%30.04 "Hg0 mi
11:20 am28 °FIce fog.2 mph100%30.04 "Hg0 mi
10:50 am28 °FIce fog.3 mph93%30.04 "Hg0 mi
10:20 am27 °FIce fog.5 mph100%30.04 "Hg0 mi
9:50 am27 °FIce fog.6 mph100%30.04 "Hg0 mi
9:20 am27 °FIce fog.5 mph100%30.04 "Hg0 mi
8:50 am27 °FIce fog.6 mph100%30.04 "Hg0 mi
8:20 am27 °FIce fog.3 mph100%30.04 "Hg0 mi
7:50 am27 °FIce fog.3 mph100%30.04 "Hg0 mi
7:20 am27 °FIce fog.5 mph100%30.04 "Hg0 mi
6:50 am27 °FChilly.5 mph100%30.04 "Hg0 mi
6:20 am28 °FLow clouds.3 mph93%30.07 "Hg0 mi
5:50 am28 °FIce fog.3 mph93%30.07 "Hg0 mi
5:20 am28 °FIce fog.3 mph100%30.07 "Hg0 mi
4:50 am28 °FIce fog.2 mph100%30.07 "Hg0 mi
4:20 am30 °FIce fog.3 mph93%30.07 "Hg0 mi
3:50 am28 °FChilly.3 mph100%30.07 "Hg0 mi
3:20 am28 °FIce fog.3 mph100%30.07 "Hg0 mi
2:50 am28 °FLow clouds.2 mph100%30.07 "Hg1 mi
2:20 am28 °FIce fog.1 mph100%30.07 "Hg0 mi
1:50 am28 °FChilly.2 mph100%30.09 "Hg0 mi
1:20 am28 °FChilly.3 mph100%30.09 "Hg0 mi
12:50 am30 °FIce fog.2 mph93%30.09 "Hg0 mi
12:20 am30 °FIce fog.No wind93%30.09 "Hg0 mi
Weather by CustomWeather, © 2017

See weather overviewHow to use our weather pages